Location: Pasadena-CA
(34.1440°N, 118.1100°W)
Time: 01:27:15
(UTC-07:00)

BEESAT 3 - Pass Details

Date: 11 July 2022
Orbit: 452 x 501 km, 64.9° (Epoch: 10 August)

Event Time Altitude Azimuth Distance (km) Brightness Sun altitude
Exits shadow 05:11:19 - 192° (SSW) 2,330 ? -7.7°
Reaches altitude 10° 05:13:01 10° 187° (S) 1,651 ? -7.4°
Maximum altitude 05:16:32 43° 115° (ESE) 696 ? -6.8°
Drops below altitude 10° 05:20:07 10° 43° (NE) 1,691 ? -6.1°
Sets 05:22:22 0° 36° (NE) 2,585 ? -5.7°
